Regional Weather Roundup
Issued by NWS

Home | Current Version | Previous Version | Graphics & Text | Print | Product List | Glossary On
Versions: 1 2 3 4 5 6 7 8 9 10 11 12 13 14 15 16 17 18 19 20 21 22 23 24 25 26 27 28 29 30 31 32 33 34 35 36 37 38 39 40 41 42 43 44 45 46 47 48 49 50
000
ASUS43 KMKX 221359
RWRWI

WISCONSIN REGIONAL WEATHER ROUNDUP
NATIONAL WEATHER SERVICE MILWAUKEE/SULLIVAN WI
800 AM CST SUN JAN 22 2017

NOTE: "FAIR" INDICATES FEW OR NO CLOUDS BELOW 12,000 FEET WITH NO
SIGNIFICANT WEATHER AND/OR OBSTRUCTIONS TO VISIBILITY.

WIZ001-002-006>008-014>016-023>028-221500-
NORTHWEST WISCONSIN

CITY           SKY/WX    TMP DP  RH WIND       PRES   REMARKS
SUPERIOR ARPT  CLOUDY    34  34 100 CALM      29.65R
ASHLAND        FOG       34  34 100 N6        29.62R VSB 1/4 WCI  29
HAYWARD        CLOUDY    34  33  96 N3        29.61R
SIREN          CLOUDY    34  34  99 N3        29.64R FOG
CUMBERLAND     FOG       32  32 100 NW6       29.61R VSB 1/4 WCI  26
RICE LAKE      FOG       34  34 100 CALM      29.63R VSB 1/2
CHETEK         CLOUDY    33  33 100 CALM      29.62R FOG
LADYSMITH      FOG       34  34  99 CALM      29.61R VSB 1/2
EAU CLAIRE     FOG       33  33 100 W5        29.62R VSB 1/2 WCI  29
MENOMONIE        N/A    N/A N/A N/A MISG        N/A
NEW RICHMOND   FOG       33  33 100 NW7       29.64R VSB 1   WCI  27
OSCEOLA        FOG       34  34 100 W3        29.67R VSB 1/2
$$

WIZ003>005-009-010-017-018-221500-
NORTH CENTRAL WISCONSIN

CITY           SKY/WX    TMP DP  RH WIND       PRES   REMARKS
MANITOWISH WTR FOG       33  33 100 CALM      29.56S VSB 1/2
ARBOR VITAE    FOG       37  36  98 CALM      29.57R VSB 1/2
WOODRUFF       FOG       37  36  98 CALM      29.57R VSB 1/2
RHINELANDER    FOG       35  35 100 CALM      29.58R VSB 1/4
EAGLE RIVER    FOG       33  33 100 CALM      29.56R VSB 1/2
LAND O LAKES   FOG       35  35 100 CALM      29.57R VSB 1/4
PHILLIPS       FOG       33  33 100 CALM      29.57R VSB 1/4
TOMAHAWK       FOG       33  33  97 CALM      29.58R VSB 1/2
MEDFORD        FOG       33  33  99 CALM      29.57R VSB<1/4
MERRILL        FOG       33  33 100 CALM        N/A  VSB 1
$$

WIZ029-030-035-036-043>047-221500-
CENTRAL WISCONSIN

CITY           SKY/WX    TMP DP  RH WIND       PRES   REMARKS
WAUSAU         FOG       34  34 100 CALM      29.58R VSB 1/2
MOSINEE        FOG       34  34 100 CALM      29.60R VSB 1/8
MARSHFIELD     FOG       34  34 100 W6        29.59R VSB 1/4 WCI  29
STEVENS POINT  RAIN      34  34 100 CALM      29.59S VSB 1
WAUPACA        FOG       37  36  96 CALM      29.60R VSB 1/4
WAUTOMA        FOG       33  33 100 S3        29.62R VSB 1/2
WISC RAPIDS    FOG       36  36 100 NW3       29.61R VSB 1/4
CAMP DOUGLAS   FOG       36  36 100 W5        29.60R VSB 1/4 WCI  32
$$

WIZ011>013-019>022-031-037>040-048>050-221500-
NORTHEAST WISCONSIN

CITY           SKY/WX    TMP DP  RH WIND       PRES   REMARKS
ANTIGO         FOG       32  32 100 CALM      29.58R VSB 1/4
SHAWANO        FOG       36  35  96 CALM      29.59S VSB 1/2
OCONTO         CLOUDY    33  32  99 CALM      29.60R VSB<1/4
STURGEON BAY   FOG       37  37 100 CALM      29.61R VSB 1/4
GREEN BAY      FOG       38  38 100 CALM      29.61R VSB<1/4
MANITOWOC      FOG       37  37 100 MISG      29.62R VSB 1/2
APPLETON       NOT AVBL
CLINTONVILLE   FOG       34  34 100 CALM      29.60R VSB<1/4
OSHKOSH        FOG       35  34  96 CALM      29.61R VSB<1/4
$$

WIZ032>034-041-042-053>061-221500-
SOUTHWEST WISCONSIN

CITY           SKY/WX    TMP DP  RH WIND       PRES   REMARKS
LA CROSSE      FOG       37  34  89 CALM      29.63R VSB 1/4
SPARTA         FOG       34  34 100 NW3       29.63R VSB 1/4
VIROQUA        CLOUDY    34  34 100 W3        29.61R
BOSCOBEL       CLOUDY    37  35  92 S5        29.64R FOG     WCI  33
PRAIRIE DU CHI CLOUDY    33  33  97 CALM      29.64R FOG
PLATTEVILLE    CLOUDY    32  32 100 CALM      29.63R
$$

WIZ056-057-062-063-064-067-068-221500-
SOUTH CENTRAL WISCONSIN

CITY           SKY/WX    TMP DP  RH WIND       PRES   REMARKS
REEDSBURG      CLOUDY    35  35 100 CALM      29.61R FOG
BARABOO/DELLS  FOG       35  35  99 CALM      29.60S VSB<1/4
LONE ROCK      CLOUDY    37  35  92 W6        29.63R FOG     WCI  32
MINERAL POINT  FOG       36  36 100 SW3       29.62R VSB 1
MADISON        CLOUDY    37  36  96 CALM      29.63R FOG
MIDDLETON      CLOUDY    36  36 100 CALM      29.62R
WATERTOWN      CLOUDY    36  36 100 CALM      29.62R FOG
MONROE         FOG       32  32 100 CALM      29.61R VSB<1/4
JANESVILLE     FOG       37  37 100 CALM      29.62R VSB 1
$$

WIZ051-052-058>065-066-070>072-221500-
SOUTHEAST WISCONSIN

CITY           SKY/WX    TMP DP  RH WIND       PRES   REMARKS
MILWAUKEE      CLOUDY    41  39  93 CALM      29.62R FOG
WAUKESHA       FOG       37  37 100 CALM      29.63R VSB 3/4
MILWAUKEE/TIMM CLOUDY    37  36  93 CALM      29.63R FOG
RACINE         FOG       38  38 100 CALM      29.64R VSB 1
KENOSHA        FOG       38  38 100 CALM      29.63R VSB 1
FOND DU LAC    FOG       36  34  92 CALM      29.62R VSB 1/4
SHEBOYGAN      FOG       36  36 100 CALM      29.62R VSB 1/4
WEST BEND      FOG       36  36 100 CALM      29.62R VSB 1/4
JUNEAU         FOG       36  36  99 CALM      29.62R VSB<1/4
$$

LSZ147-162-221500-
LAKE SUPERIOR

STATION/POSITION TIME  TEMP    WIND        PRES    WAVE
                       AIR SEA DIR/SP/G            HT/PER
                 (UTC) (F)     (DEG/KT/KT) (MB)    (FT/S)
DEVILS ISLAND    1300   35      20/ 13/ 14 1003.4R
PORT WING        1340   34      40/  7/  9 1004.1R
SAXON HARBOR     1330   34     230/  2/  4 1003.0R
$$

LMZ867-665-643>646-221500-
LAKE MICHIGAN

STATION/POSITION TIME  TEMP    WIND        PRES    WAVE
                       AIR SEA DIR/SP/G            HT/PER
                 (UTC) (F)     (DEG/KT/KT) (MB)    (FT/S)
NORTHPORT PIER   1340   33     150/  2/  3 1002.7R
SISTER BAY       1220   36        CALM       N/A
KEWAUNEE LAKESHO 1330   36      CALM  /  1 1002.1R
SHEBOYGAN LAKESH 1300   39     220/  3/  3 1002.9R
PORT WASHINGTON  1340   39     240/  1/  2 1004.4R
KENOSHA   LAKESH 1300   37      CALM  /  2 1003.0
$$

TC  - TEMPERATURE IN CELSIUS
VSB - VISIBILITY IN STATUTE MILES
WCI - WIND CHILL INDEX
HX  - HEAT INDEX




USA.gov is the U.S. government's official web portal to all federal, state and local government web resources and services.